ONEWEB-0190 (48796 NORAD) Tracking and Keplerian Element Data

This shows tracking and keplerian element data for the satellite.

Feedback or suggestion? Click here.




ElementValue
Catalog48796
NameONEWEB-0190
Epoch Orbit1069
Epoch Day211.25001157
Epoch Year2021
RAAN255.755
Inclination87.5383
Eccentricity0.0012263
Argument of Perigee65.2686
Mean Anonmoly130.5429
Mean Motion14.44429854
Decay Rate-0.01472135
L11 48796U 21045AF 21211.25001157 -.01472135 00000-0 -45900+0 0 9996
L22 48796 87.5383 255.7550 0012263 65.2686 130.5429 14.44429854 10691

Live tracking and technical data element details for ONEWEB-0190 (NORAD 48796). ONEWEB-0190 can be tracked NOW for your location showing map with azimuth and elevation plus other details from your city location.

Track the satellite on the map from your city or location and see movement details for azimuth, elevation, latitude, longitude, range, height, and movement on the map or in text.







IsCatalogInMostPopularTable: catalog: 48796, numindb: 18
Update: records affected: 1



GetName: 48796 ONEWEB-0190

Hit Count: updated at: Sat, 31 Jul 2021 16:10:05 GMT